Time,TemperatureF,DewpointF,PressureIn,WindDirection,WindDirectionDegrees,WindSpeedMPH,WindSpeedGustMPH,Humidity,HourlyPrecipIn,Conditions,Clouds,dailyrainin,SolarRadiationWatts/m^2,SoftwareType,DateUTC
2013-03-23 00:00:00,33.8,25.1,30.02,SE,140,0.0,0.0,70,0.00,,,0.00,0.00,VWS V14.01,2013-03-23 04:00:00,
2013-03-23 00:05:00,33.8,25.4,30.03,SE,140,0.0,0.0,71,0.00,,,0.00,0.00,VWS V14.01,2013-03-23 04:05:00,
2013-03-23 00:10:00,33.7,26.0,30.03,SE,140,0.0,0.0,73,0.00,,,0.00,0.00,VWS V14.01,2013-03-23 04:10:00,
2013-03-23 00:15:00,33.7,25.6,30.03,SE,140,0.0,0.0,72,0.00,,,0.00,0.00,VWS V14.01,2013-03-23 04:15:00,
2013-03-23 00:20:00,33.6,25.5,30.03,SE,140,0.0,0.0,72,0.00,,,0.00,0.00,VWS V14.01,2013-03-23 04:20:00,
2013-03-23 00:25:00,33.6,25.5,30.03,SE,140,0.0,0.0,72,0.00,,,0.00,0.00,VWS V14.01,2013-03-23 04:25:00,
2013-03-23 00:30:00,33.7,26.3,30.03,SE,140,0.0,0.0,74,0.00,,,0.00,0.00,VWS V14.01,2013-03-23 04:30:00,
2013-03-23 00:35:00,33.7,26.0,30.03,SE,140,0.0,0.0,73,0.00,,,0.00,0.00,VWS V14.01,2013-03-23 04:35:00,
2013-03-23 00:40:00,33.7,25.6,30.03,SE,140,0.0,0.0,72,0.00,,,0.00,0.00,VWS V14.01,2013-03-23 04:40:00,
2013-03-23 00:45:00,33.8,25.7,30.02,SE,140,0.0,0.0,72,0.00,,,0.00,0.00,VWS V14.01,2013-03-23 04:45:00,
2013-03-23 00:50:00,33.9,25.8,30.02,SE,140,0.0,0.0,72,0.00,,,0.00,0.00,VWS V14.01,2013-03-23 04:50:00,
2013-03-23 00:55:00,34.0,26.3,30.02,SE,140,0.0,0.0,73,0.00,,,0.00,0.00,VWS V14.01,2013-03-23 04:55:00,
2013-03-23 01:00:00,34.0,25.6,30.02,SE,140,0.0,0.0,71,0.00,,,0.00,0.00,VWS V14.01,2013-03-23 05:00:00,
2013-03-23 01:05:00,34.1,26.0,30.02,SE,141,0.0,0.0,72,0.00,,,0.00,0.00,VWS V14.01,2013-03-23 05:05:00,
2013-03-23 01:10:00,34.2,25.8,30.03,SE,140,0.0,0.0,71,0.00,,,0.00,0.00,VWS V14.01,2013-03-23 05:10:00,
2013-03-23 01:15:00,34.3,25.9,30.03,SE,140,0.0,0.0,71,0.00,,,0.00,0.00,VWS V14.01,2013-03-23 05:15:00,
2013-03-23 01:20:00,34.4,26.3,30.02,SE,140,0.0,0.0,72,0.00,,,0.00,0.00,VWS V14.01,2013-03-23 05:20:00,
2013-03-23 01:25:00,34.5,26.8,30.02,SE,140,0.0,0.0,73,0.00,,,0.00,0.00,VWS V14.01,2013-03-23 05:25:00,
2013-03-23 01:30:00,34.7,27.3,30.02,SE,140,0.0,0.0,74,0.00,,,0.00,0.00,VWS V14.01,2013-03-23 05:30:00,
2013-03-23 01:35:00,34.8,27.4,30.02,SE,140,0.0,0.0,74,0.00,,,0.00,0.00,VWS V14.01,2013-03-23 05:35:00,
2013-03-23 01:40:00,34.9,27.5,30.02,SE,140,0.0,0.0,74,0.00,,,0.00,0.00,VWS V14.01,2013-03-23 05:40:00,
2013-03-23 01:45:00,35.0,27.6,30.03,SE,140,0.0,0.0,74,0.00,,,0.00,0.00,VWS V14.01,2013-03-23 05:45:00,
2013-03-23 01:50:00,35.1,27.7,30.02,SE,140,0.0,0.0,74,0.00,,,0.00,0.00,VWS V14.01,2013-03-23 05:50:00,
2013-03-23 01:55:00,35.2,27.8,30.02,SE,140,0.0,0.0,74,0.00,,,0.00,0.00,VWS V14.01,2013-03-23 05:55:00,
2013-03-23 02:00:00,35.3,27.9,30.02,SE,140,0.0,0.0,74,0.00,,,0.00,0.00,VWS V14.01,2013-03-23 06:00:00,
2013-03-23 02:05:00,35.4,28.3,30.02,SE,140,0.0,0.0,75,0.00,,,0.00,0.00,VWS V14.01,2013-03-23 06:05:00,
2013-03-23 02:10:00,35.5,28.4,30.02,SE,140,0.0,0.0,75,0.00,,,0.00,0.00,VWS V14.01,2013-03-23 06:10:00,
2013-03-23 02:15:00,35.6,28.5,30.02,SE,140,0.0,0.0,75,0.00,,,0.00,0.00,VWS V14.01,2013-03-23 06:15:00,
2013-03-23 02:20:00,35.6,28.5,30.02,SE,140,0.0,0.0,75,0.00,,,0.00,0.00,VWS V14.01,2013-03-23 06:20:00,
2013-03-23 02:25:00,35.7,28.6,30.01,SE,140,0.0,0.0,75,0.00,,,0.00,0.00,VWS V14.01,2013-03-23 06:25:00,
2013-03-23 02:30:00,35.8,28.7,30.01,SE,140,0.0,0.0,75,0.00,,,0.00,0.00,VWS V14.01,2013-03-23 06:30:00,
2013-03-23 02:35:00,35.9,29.1,30.01,SE,140,0.0,0.0,76,0.00,,,0.00,0.00,VWS V14.01,2013-03-23 06:35:00,
2013-03-23 02:40:00,35.9,28.8,30.01,SE,140,0.0,0.0,75,0.00,,,0.00,0.00,VWS V14.01,2013-03-23 06:40:00,
2013-03-23 02:45:00,36.0,29.2,30.01,SE,140,0.0,0.0,76,0.00,,,0.00,0.00,VWS V14.01,2013-03-23 06:45:00,
2013-03-23 02:50:00,36.1,29.3,30.02,SE,140,0.0,0.0,76,0.00,,,0.00,0.00,VWS V14.01,2013-03-23 06:50:00,
2013-03-23 02:55:00,36.2,29.4,30.01,SE,140,0.0,0.0,76,0.00,,,0.00,0.00,VWS V14.01,2013-03-23 06:55:00,
2013-03-23 03:00:00,36.2,29.4,30.02,SE,140,0.0,0.0,76,0.00,,,0.00,0.00,VWS V14.01,2013-03-23 07:00:00,
2013-03-23 03:05:00,36.3,29.5,30.02,SE,140,0.0,0.0,76,0.00,,,0.00,0.00,VWS V14.01,2013-03-23 07:05:00,
2013-03-23 03:10:00,36.3,29.5,30.02,SE,140,0.0,0.0,76,0.00,,,0.00,0.00,VWS V14.01,2013-03-23 07:10:00,
2013-03-23 03:15:00,36.4,29.6,30.02,SE,140,0.0,0.0,76,0.00,,,0.00,0.00,VWS V14.01,2013-03-23 07:15:00,
2013-03-23 03:20:00,36.4,29.2,30.01,SE,140,0.0,0.0,75,0.00,,,0.00,0.00,VWS V14.01,2013-03-23 07:20:00,
2013-03-23 03:25:00,36.4,28.9,30.01,SE,140,0.0,0.0,74,0.00,,,0.00,0.00,VWS V14.01,2013-03-23 07:25:00,
2013-03-23 03:30:00,36.5,29.0,30.01,SE,140,0.0,0.0,74,0.00,,,0.00,0.00,VWS V14.01,2013-03-23 07:30:00,
2013-03-23 03:35:00,36.5,29.3,30.01,SE,140,0.0,0.0,75,0.00,,,0.00,0.00,VWS V14.01,2013-03-23 07:35:00,
2013-03-23 03:40:00,36.6,29.1,30.01,SE,140,0.0,0.0,74,0.00,,,0.00,0.00,VWS V14.01,2013-03-23 07:40:00,
2013-03-23 03:45:00,36.6,29.1,30.01,SE,140,0.0,0.0,74,0.00,,,0.00,0.00,VWS V14.01,2013-03-23 07:45:00,
2013-03-23 03:50:00,36.6,29.1,30.01,SE,140,0.0,0.0,74,0.00,,,0.00,0.00,VWS V14.01,2013-03-23 07:50:00,
2013-03-23 03:55:00,36.7,29.2,30.01,SE,140,0.0,0.0,74,0.00,,,0.00,0.00,VWS V14.01,2013-03-23 07:55:00,
2013-03-23 04:00:00,36.7,29.5,30.00,SE,140,0.0,0.0,75,0.00,,,0.00,0.00,VWS V14.01,2013-03-23 08:00:00,
2013-03-23 04:05:00,36.8,29.6,30.00,SE,140,0.0,0.0,75,0.00,,,0.00,0.00,VWS V14.01,2013-03-23 08:05:00,
2013-03-23 04:10:00,36.8,29.6,30.00,SE,140,0.0,0.0,75,0.00,,,0.00,0.00,VWS V14.01,2013-03-23 08:10:00,
2013-03-23 04:15:00,36.8,29.6,30.00,SE,140,0.0,0.0,75,0.00,,,0.00,0.00,VWS V14.01,2013-03-23 08:15:00,
2013-03-23 04:20:00,36.9,30.0,30.01,SE,140,0.0,0.0,76,0.00,,,0.00,0.00,VWS V14.01,2013-03-23 08:20:00,
2013-03-23 04:25:00,36.9,30.0,30.01,SE,140,0.0,0.0,76,0.00,,,0.00,0.00,VWS V14.01,2013-03-23 08:25:00,
2013-03-23 04:30:00,36.9,30.0,30.01,SE,140,0.0,0.0,76,0.00,,,0.00,0.00,VWS V14.01,2013-03-23 08:30:00,
2013-03-23 04:35:00,36.9,30.0,30.01,SE,140,0.0,0.0,76,0.00,,,0.00,0.00,VWS V14.01,2013-03-23 08:35:00,
2013-03-23 04:40:00,36.9,30.0,30.01,SE,140,0.0,0.0,76,0.00,,,0.00,0.00,VWS V14.01,2013-03-23 08:40:00,
2013-03-23 04:45:00,36.9,30.0,30.01,SE,140,0.0,0.0,76,0.00,,,0.00,0.00,VWS V14.01,2013-03-23 08:45:00,
2013-03-23 04:50:00,36.9,30.4,30.00,SE,140,0.0,0.0,77,0.00,,,0.00,0.00,VWS V14.01,2013-03-23 08:50:00,
2013-03-23 04:55:00,36.8,30.3,30.01,SE,140,0.0,0.0,77,0.00,,,0.00,0.00,VWS V14.01,2013-03-23 08:55:00,
2013-03-23 05:00:00,36.8,30.0,30.00,SE,140,0.0,0.0,76,0.00,,,0.00,0.00,VWS V14.01,2013-03-23 09:00:00,
2013-03-23 05:05:00,36.7,29.9,30.01,SE,140,0.0,0.0,76,0.00,,,0.00,0.00,VWS V14.01,2013-03-23 09:05:00,
2013-03-23 05:10:00,36.6,29.8,30.01,SE,140,0.0,0.0,76,0.00,,,0.00,0.00,VWS V14.01,2013-03-23 09:10:00,
2013-03-23 05:15:00,36.5,29.7,30.01,SE,140,0.0,0.0,76,0.00,,,0.00,0.00,VWS V14.01,2013-03-23 09:15:00,
2013-03-23 05:20:00,36.4,29.9,30.01,SE,140,0.0,0.0,77,0.00,,,0.00,0.00,VWS V14.01,2013-03-23 09:20:00,
2013-03-23 05:25:00,36.2,29.7,30.01,SE,140,0.0,0.0,77,0.00,,,0.00,0.00,VWS V14.01,2013-03-23 09:25:00,
2013-03-23 05:30:00,36.0,29.8,30.00,SE,140,0.0,0.0,78,0.00,,,0.00,0.00,VWS V14.01,2013-03-23 09:30:00,
2013-03-23 05:35:00,35.9,29.7,30.00,SE,140,0.0,0.0,78,0.00,,,0.00,0.00,VWS V14.01,2013-03-23 09:35:00,
2013-03-23 05:40:00,35.8,29.6,30.00,SE,140,0.0,0.0,78,0.00,,,0.00,0.00,VWS V14.01,2013-03-23 09:40:00,
2013-03-23 05:45:00,35.6,29.4,30.00,SE,140,0.0,0.0,78,0.00,,,0.00,0.00,VWS V14.01,2013-03-23 09:45:00,
2013-03-23 05:50:00,35.5,29.6,30.00,SE,140,0.0,0.0,79,0.00,,,0.00,0.00,VWS V14.01,2013-03-23 09:50:00,
2013-03-23 05:55:00,35.4,29.5,29.99,SE,140,0.0,0.0,79,0.00,,,0.00,0.00,VWS V14.01,2013-03-23 09:55:00,
2013-03-23 06:00:00,35.3,29.8,29.99,SE,140,0.0,1.0,80,0.00,,,0.00,0.00,VWS V14.01,2013-03-23 10:00:00,
2013-03-23 06:05:00,35.3,29.8,29.99,SE,140,0.0,0.0,80,0.00,,,0.00,0.00,VWS V14.01,2013-03-23 10:05:00,
2013-03-23 06:10:00,35.2,29.7,30.00,SE,140,0.0,0.0,80,0.00,,,0.00,0.00,VWS V14.01,2013-03-23 10:10:00,
2013-03-23 06:15:00,35.2,29.7,30.00,SE,140,0.0,0.0,80,0.00,,,0.00,0.00,VWS V14.01,2013-03-23 10:15:00,
2013-03-23 06:20:00,35.1,29.6,30.01,SE,140,0.0,0.0,80,0.00,,,0.00,0.00,VWS V14.01,2013-03-23 10:20:00,
2013-03-23 06:25:00,35.0,29.5,30.01,SE,140,0.0,0.0,80,0.00,,,0.00,0.00,VWS V14.01,2013-03-23 10:25:00,
2013-03-23 06:30:00,35.0,29.5,30.02,SE,140,0.0,0.0,80,0.00,,,0.00,0.00,VWS V14.01,2013-03-23 10:30:00,
2013-03-23 06:35:00,35.0,29.8,30.02,SE,140,0.0,0.0,81,0.00,,,0.00,0.00,VWS V14.01,2013-03-23 10:35:00,
2013-03-23 06:40:00,34.9,29.7,30.02,SE,140,0.0,0.0,81,0.00,,,0.00,0.00,VWS V14.01,2013-03-23 10:40:00,
2013-03-23 06:45:00,34.8,29.6,30.03,SE,140,0.0,0.0,81,0.00,,,0.00,0.00,VWS V14.01,2013-03-23 10:45:00,
2013-03-23 06:50:00,34.8,29.6,30.03,SE,140,0.0,0.0,81,0.00,,,0.00,0.00,VWS V14.01,2013-03-23 10:50:00,
2013-03-23 06:55:00,34.8,29.9,30.03,SE,140,0.0,0.0,82,0.00,,,0.00,0.00,VWS V14.01,2013-03-23 10:55:00,
2013-03-23 07:00:00,34.8,29.9,30.03,SE,140,0.0,0.0,82,0.00,,,0.00,0.00,VWS V14.01,2013-03-23 11:00:00,
2013-03-23 07:05:00,34.9,30.0,30.03,SE,140,0.0,0.0,82,0.00,,,0.00,0.00,VWS V14.01,2013-03-23 11:05:00,
2013-03-23 07:10:00,35.0,30.4,30.03,SE,140,0.0,0.0,83,0.00,,,0.00,0.00,VWS V14.01,2013-03-23 11:10:00,
2013-03-23 07:15:00,35.0,30.4,30.02,SE,140,1.0,2.0,83,0.00,,,0.00,0.00,VWS V14.01,2013-03-23 11:15:00,
2013-03-23 07:20:00,35.1,30.5,30.02,SE,140,0.0,0.0,83,0.00,,,0.00,0.00,VWS V14.01,2013-03-23 11:20:00,
2013-03-23 07:25:00,35.2,30.6,30.02,SE,140,0.0,0.0,83,0.00,,,0.00,0.00,VWS V14.01,2013-03-23 11:25:00,
2013-03-23 07:30:00,35.3,30.7,30.02,SE,140,0.0,0.0,83,0.00,,,0.00,5.00,VWS V14.01,2013-03-23 11:30:00,
2013-03-23 07:35:00,35.4,30.8,30.02,SE,140,0.0,0.0,83,0.00,,,0.00,9.00,VWS V14.01,2013-03-23 11:35:00,
2013-03-23 07:40:00,35.5,30.9,30.02,SE,140,0.0,0.0,83,0.00,,,0.00,12.00,VWS V14.01,2013-03-23 11:40:00,
2013-03-23 07:45:00,35.5,30.9,30.03,SE,140,0.0,0.0,83,0.00,,,0.00,14.00,VWS V14.01,2013-03-23 11:45:00,
2013-03-23 07:50:00,35.6,31.0,30.03,SE,140,0.0,0.0,83,0.00,,,0.00,16.00,VWS V14.01,2013-03-23 11:50:00,
2013-03-23 07:55:00,35.7,31.4,30.03,SE,140,0.0,0.0,84,0.00,,,0.00,23.00,VWS V14.01,2013-03-23 11:55:00,
2013-03-23 08:00:00,35.7,31.4,30.03,SE,140,0.0,0.0,84,0.00,,,0.00,21.00,VWS V14.01,2013-03-23 12:00:00,
2013-03-23 08:05:00,35.9,31.5,30.03,SE,140,0.0,0.0,84,0.00,,,0.00,28.00,VWS V14.01,2013-03-23 12:05:00,
2013-03-23 08:10:00,36.0,31.4,30.04,SE,140,0.0,0.0,83,0.00,,,0.00,21.00,VWS V14.01,2013-03-23 12:10:00,
2013-03-23 08:15:00,36.2,31.5,30.04,SE,140,0.0,0.0,83,0.00,,,0.00,21.00,VWS V14.01,2013-03-23 12:15:00,
2013-03-23 08:20:00,36.4,32.0,30.04,SE,140,0.0,0.0,84,0.00,,,0.00,28.00,VWS V14.01,2013-03-23 12:20:00,
2013-03-23 08:25:00,36.5,32.1,30.04,SE,140,0.0,0.0,84,0.00,,,0.00,37.00,VWS V14.01,2013-03-23 12:25:00,
2013-03-23 08:30:00,36.7,32.3,30.05,SE,140,0.0,0.0,84,0.00,,,0.00,33.00,VWS V14.01,2013-03-23 12:30:00,
2013-03-23 08:35:00,36.9,32.5,30.04,SE,140,0.0,0.0,84,0.00,,,0.00,47.00,VWS V14.01,2013-03-23 12:35:00,
2013-03-23 08:40:00,37.0,32.6,30.05,SE,140,0.0,0.0,84,0.00,,,0.00,39.00,VWS V14.01,2013-03-23 12:40:00,
2013-03-23 08:45:00,37.3,32.9,30.04,SE,140,0.0,0.0,84,0.00,,,0.00,39.00,VWS V14.01,2013-03-23 12:45:00,
2013-03-23 08:50:00,37.6,32.9,30.04,SE,140,0.0,0.0,83,0.00,,,0.00,49.00,VWS V14.01,2013-03-23 12:50:00,
2013-03-23 08:55:00,37.8,33.1,30.04,SE,140,0.0,0.0,83,0.00,,,0.00,40.00,VWS V14.01,2013-03-23 12:55:00,
2013-03-23 09:00:00,38.0,33.3,30.04,SE,140,0.0,0.0,83,0.00,,,0.00,42.00,VWS V14.01,2013-03-23 13:00:00,
2013-03-23 09:05:00,38.2,33.2,30.04,SE,140,0.0,0.0,82,0.00,,,0.00,44.00,VWS V14.01,2013-03-23 13:05:00,
2013-03-23 09:10:00,38.3,33.3,30.04,SE,140,0.0,0.0,82,0.00,,,0.00,47.00,VWS V14.01,2013-03-23 13:10:00,
2013-03-23 09:15:00,38.5,33.5,30.05,SE,140,0.0,0.0,82,0.00,,,0.00,47.00,VWS V14.01,2013-03-23 13:15:00,
2013-03-23 09:20:00,38.7,33.7,30.05,SE,140,0.0,0.0,82,0.00,,,0.00,49.00,VWS V14.01,2013-03-23 13:20:00,
2013-03-23 09:25:00,38.8,33.5,30.06,SE,140,0.0,0.0,81,0.00,,,0.00,53.00,VWS V14.01,2013-03-23 13:25:00,
2013-03-23 09:30:00,39.1,33.5,30.06,SE,140,0.0,0.0,80,0.00,,,0.00,58.00,VWS V14.01,2013-03-23 13:30:00,
2013-03-23 09:35:00,39.3,34.0,30.06,SE,140,0.0,0.0,81,0.00,,,0.00,58.00,VWS V14.01,2013-03-23 13:35:00,
2013-03-23 09:40:00,39.6,34.0,30.06,SE,140,0.0,0.0,80,0.00,,,0.00,58.00,VWS V14.01,2013-03-23 13:40:00,
2013-03-23 09:45:00,39.7,33.7,30.06,SE,140,0.0,0.0,79,0.00,,,0.00,47.00,VWS V14.01,2013-03-23 13:45:00,
2013-03-23 09:50:00,39.9,33.6,30.06,SE,140,0.0,0.0,78,0.00,,,0.00,56.00,VWS V14.01,2013-03-23 13:50:00,
2013-03-23 09:55:00,40.1,33.5,30.06,SE,140,0.0,0.0,77,0.00,,,0.00,77.00,VWS V14.01,2013-03-23 13:55:00,
2013-03-23 10:00:00,40.4,33.5,30.06,SE,140,0.0,0.0,76,0.00,,,0.00,90.00,VWS V14.01,2013-03-23 14:00:00,
2013-03-23 10:05:00,40.7,32.7,30.06,SE,140,0.0,0.0,73,0.00,,,0.00,93.00,VWS V14.01,2013-03-23 14:05:00,
2013-03-23 10:10:00,40.9,30.4,30.06,SE,140,1.0,1.0,66,0.00,,,0.00,93.00,VWS V14.01,2013-03-23 14:10:00,
2013-03-23 10:15:00,41.1,29.1,30.06,SE,140,0.0,0.0,62,0.00,,,0.00,77.00,VWS V14.01,2013-03-23 14:15:00,
2013-03-23 10:20:00,41.5,28.3,30.05,SE,140,0.0,1.0,59,0.00,,,0.00,86.00,VWS V14.01,2013-03-23 14:20:00,
2013-03-23 10:25:00,41.8,27.3,30.05,SE,140,0.0,0.0,56,0.00,,,0.00,102.00,VWS V14.01,2013-03-23 14:25:00,
2013-03-23 10:30:00,42.1,26.7,30.05,SE,140,0.0,0.0,54,0.00,,,0.00,104.00,VWS V14.01,2013-03-23 14:30:00,
2013-03-23 10:35:00,42.5,27.0,30.05,SE,140,0.0,0.0,54,0.00,,,0.00,111.00,VWS V14.01,2013-03-23 14:35:00,
2013-03-23 10:40:00,42.8,25.9,30.05,ESE,118,0.0,1.0,51,0.00,,,0.00,93.00,VWS V14.01,2013-03-23 14:40:00,
2013-03-23 10:45:00,43.1,27.1,30.06,ESE,118,0.0,0.0,53,0.00,,,0.00,100.00,VWS V14.01,2013-03-23 14:45:00,
2013-03-23 10:50:00,43.4,26.5,30.06,ESE,118,0.0,0.0,51,0.00,,,0.00,84.00,VWS V14.01,2013-03-23 14:50:00,
2013-03-23 10:55:00,43.5,26.1,30.06,East,91,0.0,2.0,50,0.00,,,0.00,104.00,VWS V14.01,2013-03-23 14:55:00,
2013-03-23 11:00:00,43.6,25.7,30.06,East,89,0.0,1.0,49,0.00,,,0.00,144.00,VWS V14.01,2013-03-23 15:00:00,
2013-03-23 11:05:00,43.8,25.4,30.07,NE,44,0.0,0.0,48,0.00,,,0.00,132.00,VWS V14.01,2013-03-23 15:05:00,
2013-03-23 11:10:00,44.1,25.2,30.07,NE,44,0.0,0.0,47,0.00,,,0.00,134.00,VWS V14.01,2013-03-23 15:10:00,
2013-03-23 11:15:00,44.4,26.5,30.07,NE,44,1.0,1.0,49,0.00,,,0.00,98.00,VWS V14.01,2013-03-23 15:15:00,
2013-03-23 11:20:00,44.6,25.6,30.07,NE,44,0.0,1.0,47,0.00,,,0.00,109.00,VWS V14.01,2013-03-23 15:20:00,
2013-03-23 11:25:00,44.7,25.2,30.06,NE,44,0.0,0.0,46,0.00,,,0.00,125.00,VWS V14.01,2013-03-23 15:25:00,
2013-03-23 11:30:00,44.9,26.4,30.05,NE,44,0.0,0.0,48,0.00,,,0.00,188.00,VWS V14.01,2013-03-23 15:30:00,
2013-03-23 11:35:00,45.0,26.0,30.05,NE,44,0.0,0.0,47,0.00,,,0.00,216.00,VWS V14.01,2013-03-23 15:35:00,
2013-03-23 11:40:00,45.2,26.2,30.05,NE,44,0.0,0.0,47,0.00,,,0.00,200.00,VWS V14.01,2013-03-23 15:40:00,
2013-03-23 11:45:00,45.6,24.4,30.05,SSE,167,3.0,3.0,43,0.00,,,0.00,218.00,VWS V14.01,2013-03-23 15:45:00,
2013-03-23 11:50:00,46.0,24.2,30.05,SSE,163,2.0,2.0,42,0.00,,,0.00,216.00,VWS V14.01,2013-03-23 15:50:00,
2013-03-23 11:55:00,46.3,24.5,30.05,SSE,163,0.0,0.0,42,0.00,,,0.00,204.00,VWS V14.01,2013-03-23 15:55:00,
2013-03-23 12:00:00,46.6,24.2,30.04,WSW,250,2.0,2.0,41,0.00,,,0.00,315.00,VWS V14.01,2013-03-23 16:00:00,
2013-03-23 12:05:00,46.9,23.3,30.04,SW,229,0.0,1.0,39,0.00,,,0.00,322.00,VWS V14.01,2013-03-23 16:05:00,
2013-03-23 12:10:00,47.4,23.1,30.04,SW,230,0.0,0.0,38,0.00,,,0.00,311.00,VWS V14.01,2013-03-23 16:10:00,
2013-03-23 12:15:00,47.9,22.9,30.03,NE,40,1.0,2.0,37,0.00,,,0.00,390.00,VWS V14.01,2013-03-23 16:15:00,
2013-03-23 12:20:00,48.6,22.9,30.04,SSE,160,2.0,4.0,36,0.00,,,0.00,441.00,VWS V14.01,2013-03-23 16:20:00,
2013-03-23 12:25:00,48.9,22.5,30.03,ENE,76,0.0,2.0,35,0.00,,,0.00,387.00,VWS V14.01,2013-03-23 16:25:00,
2013-03-23 12:30:00,49.5,24.3,30.03,ENE,76,1.0,1.0,37,0.00,,,0.00,336.00,VWS V14.01,2013-03-23 16:30:00,
2013-03-23 12:35:00,50.0,22.8,30.03,East,100,1.0,1.0,34,0.00,,,0.00,262.00,VWS V14.01,2013-03-23 16:35:00,
2013-03-23 12:40:00,50.0,22.0,30.03,SSE,152,2.0,2.0,33,0.00,,,0.00,239.00,VWS V14.01,2013-03-23 16:40:00,
2013-03-23 12:45:00,50.1,20.7,30.03,SSE,150,1.0,2.0,31,0.00,,,0.00,250.00,VWS V14.01,2013-03-23 16:45:00,
2013-03-23 12:50:00,50.4,23.1,30.03,SSE,150,2.0,2.0,34,0.00,,,0.00,276.00,VWS V14.01,2013-03-23 16:50:00,
2013-03-23 12:55:00,50.6,22.6,30.03,SSE,158,2.0,3.0,33,0.00,,,0.00,323.00,VWS V14.01,2013-03-23 16:55:00,
2013-03-23 13:00:00,50.6,21.9,30.02,SW,219,0.0,1.0,32,0.00,,,0.00,369.00,VWS V14.01,2013-03-23 17:00:00,
2013-03-23 13:05:00,50.7,23.4,30.02,WSW,239,0.0,2.0,34,0.00,,,0.00,436.00,VWS V14.01,2013-03-23 17:05:00,
2013-03-23 13:10:00,51.0,23.6,30.02,SW,214,2.0,2.0,34,0.00,,,0.00,540.00,VWS V14.01,2013-03-23 17:10:00,
2013-03-23 13:15:00,51.6,23.5,30.02,SSW,207,1.0,2.0,33,0.00,,,0.00,533.00,VWS V14.01,2013-03-23 17:15:00,
2013-03-23 13:20:00,52.2,21.7,30.01,SSW,210,1.0,1.0,30,0.00,,,0.00,438.00,VWS V14.01,2013-03-23 17:20:00,
2013-03-23 13:25:00,52.3,23.3,30.01,SSW,210,0.0,1.0,32,0.00,,,0.00,534.00,VWS V14.01,2013-03-23 17:25:00,
2013-03-23 13:30:00,52.9,23.1,30.01,SSW,192,0.0,1.0,31,0.00,,,0.00,492.00,VWS V14.01,2013-03-23 17:30:00,
2013-03-23 13:35:00,53.3,23.5,30.01,South,191,0.0,1.0,31,0.00,,,0.00,478.00,VWS V14.01,2013-03-23 17:35:00,
2013-03-23 13:40:00,54.0,26.3,30.01,South,191,1.0,1.0,34,0.00,,,0.00,478.00,VWS V14.01,2013-03-23 17:40:00,
2013-03-23 13:45:00,53.7,24.6,30.01,WNW,297,2.0,2.0,32,0.00,,,0.00,413.00,VWS V14.01,2013-03-23 17:45:00,
2013-03-23 13:50:00,53.7,26.7,30.01,WNW,286,1.0,2.0,35,0.00,,,0.00,584.00,VWS V14.01,2013-03-23 17:50:00,
2013-03-23 13:55:00,54.2,24.2,30.01,WNW,287,2.0,2.0,31,0.00,,,0.00,548.00,VWS V14.01,2013-03-23 17:55:00,
2013-03-23 14:00:00,54.4,25.2,30.00,NW,304,0.0,1.0,32,0.00,,,0.00,403.00,VWS V14.01,2013-03-23 18:00:00,
2013-03-23 14:05:00,54.3,27.2,30.00,SW,218,1.0,3.0,35,0.00,,,0.00,348.00,VWS V14.01,2013-03-23 18:05:00,
2013-03-23 14:10:00,53.7,25.3,30.00,South,182,0.0,1.0,33,0.00,,,0.00,330.00,VWS V14.01,2013-03-23 18:10:00,
2013-03-23 14:15:00,53.7,27.4,30.00,SSW,200,1.0,3.0,36,0.00,,,0.00,306.00,VWS V14.01,2013-03-23 18:15:00,
2013-03-23 14:20:00,53.6,26.6,29.99,SSE,153,2.0,3.0,35,0.00,,,0.00,299.00,VWS V14.01,2013-03-23 18:20:00,
2013-03-23 14:25:00,53.3,26.4,29.99,SW,216,0.0,2.0,35,0.00,,,0.00,336.00,VWS V14.01,2013-03-23 18:25:00,
2013-03-23 14:30:00,53.4,26.5,29.99,SW,216,1.0,1.0,35,0.00,,,0.00,387.00,VWS V14.01,2013-03-23 18:30:00,
2013-03-23 14:35:00,53.3,27.0,29.98,SSW,211,3.0,3.0,36,0.00,,,0.00,339.00,VWS V14.01,2013-03-23 18:35:00,
2013-03-23 14:40:00,53.3,26.4,29.98,WSW,247,2.0,2.0,35,0.00,,,0.00,392.00,VWS V14.01,2013-03-23 18:40:00,
2013-03-23 14:45:00,53.3,27.0,29.98,SE,138,2.0,2.0,36,0.00,,,0.00,408.00,VWS V14.01,2013-03-23 18:45:00,
2013-03-23 14:50:00,53.5,27.9,29.98,SW,222,2.0,3.0,37,0.00,,,0.00,387.00,VWS V14.01,2013-03-23 18:50:00,
2013-03-23 14:55:00,53.6,27.3,29.98,SW,234,2.0,2.0,36,0.00,,,0.00,429.00,VWS V14.01,2013-03-23 18:55:00,
2013-03-23 15:00:00,54.2,27.9,29.97,SE,128,3.0,3.0,36,0.00,,,0.00,529.00,VWS V14.01,2013-03-23 19:00:00,
2013-03-23 15:05:00,54.4,27.3,29.97,South,180,1.0,1.0,35,0.00,,,0.00,438.00,VWS V14.01,2013-03-23 19:05:00,
2013-03-23 15:10:00,54.3,27.9,29.96,NNW,340,0.0,3.0,36,0.00,,,0.00,677.00,VWS V14.01,2013-03-23 19:10:00,
2013-03-23 15:15:00,53.9,28.2,29.96,West,280,0.0,1.0,37,0.00,,,0.00,559.00,VWS V14.01,2013-03-23 19:15:00,
2013-03-23 15:20:00,54.1,28.4,29.96,NW,310,0.0,0.0,37,0.00,,,0.00,341.00,VWS V14.01,2013-03-23 19:20:00,
2013-03-23 15:25:00,54.3,29.2,29.96,NNE,24,0.0,2.0,38,0.00,,,0.00,752.00,VWS V14.01,2013-03-23 19:25:00,
2013-03-23 15:30:00,55.0,29.9,29.96,NNE,23,0.0,2.0,38,0.00,,,0.00,737.00,VWS V14.01,2013-03-23 19:30:00,
2013-03-23 15:35:00,56.7,30.7,29.95,South,178,3.0,5.0,37,0.00,,,0.00,729.00,VWS V14.01,2013-03-23 19:35:00,
2013-03-23 15:40:00,55.9,29.4,29.96,SSW,198,2.0,3.0,36,0.00,,,0.00,777.00,VWS V14.01,2013-03-23 19:40:00,
2013-03-23 15:45:00,55.5,29.0,29.96,NNE,24,1.0,3.0,36,0.00,,,0.00,747.00,VWS V14.01,2013-03-23 19:45:00,
2013-03-23 15:50:00,55.8,29.9,29.96,SW,219,4.0,4.0,37,0.00,,,0.00,710.00,VWS V14.01,2013-03-23 19:50:00,
2013-03-23 15:55:00,55.6,29.8,29.96,West,261,2.0,4.0,37,0.00,,,0.00,729.00,VWS V14.01,2013-03-23 19:55:00,
2013-03-23 16:00:00,55.3,29.5,29.95,WSW,238,0.0,3.0,37,0.00,,,0.00,526.00,VWS V14.01,2013-03-23 20:00:00,
2013-03-23 16:05:00,55.3,31.4,29.95,NW,319,1.0,2.0,40,0.00,,,0.00,369.00,VWS V14.01,2013-03-23 20:05:00,
2013-03-23 16:10:00,55.6,29.8,29.95,WSW,248,1.0,3.0,37,0.00,,,0.00,348.00,VWS V14.01,2013-03-23 20:10:00,
2013-03-23 16:15:00,56.0,30.1,29.95,South,180,2.0,3.0,37,0.00,,,0.00,541.00,VWS V14.01,2013-03-23 20:15:00,
2013-03-23 16:20:00,57.1,31.8,29.95,South,188,2.0,3.0,38,0.00,,,0.00,606.00,VWS V14.01,2013-03-23 20:20:00,
2013-03-23 16:25:00,57.5,32.1,29.94,WSW,250,4.0,5.0,38,0.00,,,0.00,624.00,VWS V14.01,2013-03-23 20:25:00,
2013-03-23 16:30:00,57.3,30.6,29.95,ENE,67,0.0,1.0,36,0.00,,,0.00,598.00,VWS V14.01,2013-03-23 20:30:00,
2013-03-23 16:35:00,57.6,30.9,29.94,ESE,110,1.0,1.0,36,0.00,,,0.00,512.00,VWS V14.01,2013-03-23 20:35:00,
2013-03-23 16:40:00,57.3,30.6,29.94,SW,228,2.0,4.0,36,0.00,,,0.00,594.00,VWS V14.01,2013-03-23 20:40:00,
2013-03-23 16:45:00,56.6,30.6,29.93,WSW,253,0.0,1.0,37,0.00,,,0.00,589.00,VWS V14.01,2013-03-23 20:45:00,
2013-03-23 16:50:00,57.3,31.9,29.93,South,180,0.0,1.0,38,0.00,,,0.00,531.00,VWS V14.01,2013-03-23 20:50:00,
2013-03-23 16:55:00,57.8,31.0,29.92,ENE,61,3.0,4.0,36,0.00,,,0.00,508.00,VWS V14.01,2013-03-23 20:55:00,
2013-03-23 17:00:00,58.0,31.2,29.92,NE,56,0.0,3.0,36,0.00,,,0.00,490.00,VWS V14.01,2013-03-23 21:00:00,
2013-03-23 17:05:00,57.4,32.0,29.92,NW,312,0.0,2.0,38,0.00,,,0.00,471.00,VWS V14.01,2013-03-23 21:05:00,
2013-03-23 17:10:00,58.1,32.0,29.92,SE,128,1.0,3.0,37,0.00,,,0.00,454.00,VWS V14.01,2013-03-23 21:10:00,
2013-03-23 17:15:00,58.3,32.2,29.92,SSE,155,2.0,2.0,37,0.00,,,0.00,436.00,VWS V14.01,2013-03-23 21:15:00,
2013-03-23 17:20:00,58.3,32.2,29.92,ESE,119,0.0,1.0,37,0.00,,,0.00,422.00,VWS V14.01,2013-03-23 21:20:00,
2013-03-23 17:25:00,58.8,32.6,29.92,ESE,114,0.0,1.0,37,0.00,,,0.00,408.00,VWS V14.01,2013-03-23 21:25:00,
2013-03-23 17:30:00,58.6,32.4,29.92,ESE,114,0.0,1.0,37,0.00,,,0.00,390.00,VWS V14.01,2013-03-23 21:30:00,
2013-03-23 17:35:00,58.5,33.0,29.92,South,188,2.0,4.0,38,0.00,,,0.00,373.00,VWS V14.01,2013-03-23 21:35:00,
2013-03-23 17:40:00,58.5,31.7,29.92,NW,320,1.0,1.0,36,0.00,,,0.00,353.00,VWS V14.01,2013-03-23 21:40:00,
2013-03-23 17:45:00,58.4,32.2,29.92,West,267,1.0,2.0,37,0.00,,,0.00,334.00,VWS V14.01,2013-03-23 21:45:00,
2013-03-23 17:50:00,58.2,32.1,29.91,West,267,3.0,3.0,37,0.00,,,0.00,316.00,VWS V14.01,2013-03-23 21:50:00,
2013-03-23 17:55:00,58.0,32.6,29.91,WNW,299,2.0,2.0,38,0.00,,,0.00,297.00,VWS V14.01,2013-03-23 21:55:00,
2013-03-23 18:00:00,58.2,32.1,29.91,SE,137,3.0,4.0,37,0.00,,,0.00,272.00,VWS V14.01,2013-03-23 22:00:00,
2013-03-23 18:05:00,58.4,31.6,29.91,NNW,335,0.0,2.0,36,0.00,,,0.00,185.00,VWS V14.01,2013-03-23 22:05:00,
2013-03-23 18:10:00,58.3,31.5,29.91,NNW,341,0.0,1.0,36,0.00,,,0.00,72.00,VWS V14.01,2013-03-23 22:10:00,
2013-03-23 18:15:00,58.2,32.7,29.91,NNW,342,1.0,3.0,38,0.00,,,0.00,63.00,VWS V14.01,2013-03-23 22:15:00,
2013-03-23 18:20:00,57.9,31.8,29.91,North,5,1.0,2.0,37,0.00,,,0.00,67.00,VWS V14.01,2013-03-23 22:20:00,
2013-03-23 18:25:00,57.7,33.6,29.91,North,5,0.0,0.0,40,0.00,,,0.00,83.00,VWS V14.01,2013-03-23 22:25:00,
2013-03-23 18:30:00,57.7,32.9,29.90,North,5,0.0,0.0,39,0.00,,,0.00,74.00,VWS V14.01,2013-03-23 22:30:00,
2013-03-23 18:35:00,57.8,33.0,29.91,North,5,1.0,1.0,39,0.00,,,0.00,63.00,VWS V14.01,2013-03-23 22:35:00,
2013-03-23 18:40:00,57.7,34.2,29.91,North,5,2.0,2.0,41,0.00,,,0.00,72.00,VWS V14.01,2013-03-23 22:40:00,
2013-03-23 18:45:00,57.6,34.1,29.91,North,5,0.0,0.0,41,0.00,,,0.00,53.00,VWS V14.01,2013-03-23 22:45:00,
2013-03-23 18:50:00,57.3,33.2,29.91,North,5,0.0,1.0,40,0.00,,,0.00,46.00,VWS V14.01,2013-03-23 22:50:00,
2013-03-23 18:55:00,57.1,34.8,29.91,North,5,1.0,2.0,43,0.00,,,0.00,40.00,VWS V14.01,2013-03-23 22:55:00,
2013-03-23 19:00:00,56.9,35.2,29.91,North,5,0.0,1.0,44,0.00,,,0.00,30.00,VWS V14.01,2013-03-23 23:00:00,
2013-03-23 19:05:00,56.6,34.4,29.91,North,5,0.0,0.0,43,0.00,,,0.00,26.00,VWS V14.01,2013-03-23 23:05:00,
2013-03-23 19:10:00,56.3,34.7,29.91,North,5,0.0,0.0,44,0.00,,,0.00,21.00,VWS V14.01,2013-03-23 23:10:00,
2013-03-23 19:15:00,56.0,35.5,29.92,North,5,0.0,0.0,46,0.00,,,0.00,19.00,VWS V14.01,2013-03-23 23:15:00,
2013-03-23 19:20:00,55.6,34.6,29.92,North,5,0.0,0.0,45,0.00,,,0.00,12.00,VWS V14.01,2013-03-23 23:20:00,
2013-03-23 19:25:00,55.0,34.1,29.92,North,5,0.0,0.0,45,0.00,,,0.00,9.00,VWS V14.01,2013-03-23 23:25:00,
2013-03-23 19:30:00,54.6,34.2,29.92,North,5,0.0,0.0,46,0.00,,,0.00,5.00,VWS V14.01,2013-03-23 23:30:00,
2013-03-23 19:35:00,54.2,35.0,29.92,North,5,0.0,0.0,48,0.00,,,0.00,0.00,VWS V14.01,2013-03-23 23:35:00,
2013-03-23 19:40:00,53.9,37.2,29.92,North,5,0.0,0.0,53,0.00,,,0.00,0.00,VWS V14.01,2013-03-23 23:40:00,
2013-03-23 19:45:00,53.4,36.7,29.92,North,5,0.0,0.0,53,0.00,,,0.00,0.00,VWS V14.01,2013-03-23 23:45:00,
2013-03-23 19:50:00,52.9,35.8,29.93,North,5,0.0,0.0,52,0.00,,,0.00,0.00,VWS V14.01,2013-03-23 23:50:00,
2013-03-23 19:55:00,52.4,35.3,29.93,North,5,0.0,0.0,52,0.00,,,0.00,0.00,VWS V14.01,2013-03-23 23:55:00,
2013-03-23 20:00:00,52.0,35.4,29.93,North,5,0.0,0.0,53,0.00,,,0.00,0.00,VWS V14.01,2013-03-24 00:00:00,
2013-03-23 20:05:00,51.5,36.8,29.93,North,5,0.0,0.0,57,0.00,,,0.00,0.00,VWS V14.01,2013-03-24 00:05:00,
2013-03-23 20:10:00,51.0,37.2,29.93,North,5,0.0,0.0,59,0.00,,,0.00,0.00,VWS V14.01,2013-03-24 00:10:00,
2013-03-23 20:15:00,50.4,36.6,29.93,North,5,0.0,0.0,59,0.00,,,0.00,0.00,VWS V14.01,2013-03-24 00:15:00,
2013-03-23 20:20:00,49.9,36.2,29.93,North,5,0.0,0.0,59,0.00,,,0.00,0.00,VWS V14.01,2013-03-24 00:20:00,
2013-03-23 20:25:00,49.4,35.7,29.93,North,5,0.0,0.0,59,0.00,,,0.00,0.00,VWS V14.01,2013-03-24 00:25:00,
2013-03-23 20:30:00,49.0,36.6,29.93,North,5,0.0,0.0,62,0.00,,,0.00,0.00,VWS V14.01,2013-03-24 00:30:00,
2013-03-23 20:35:00,48.6,36.6,29.93,North,5,0.0,0.0,63,0.00,,,0.00,0.00,VWS V14.01,2013-03-24 00:35:00,
2013-03-23 20:40:00,48.2,36.2,29.93,North,5,0.0,0.0,63,0.00,,,0.00,0.00,VWS V14.01,2013-03-24 00:40:00,
2013-03-23 20:45:00,47.9,36.3,29.93,North,5,0.0,0.0,64,0.00,,,0.00,0.00,VWS V14.01,2013-03-24 00:45:00,
2013-03-23 20:50:00,47.5,36.3,29.93,North,5,0.0,0.0,65,0.00,,,0.00,0.00,VWS V14.01,2013-03-24 00:50:00,
2013-03-23 20:55:00,47.2,36.4,29.94,North,5,0.0,0.0,66,0.00,,,0.00,0.00,VWS V14.01,2013-03-24 00:55:00,
2013-03-23 21:00:00,46.8,36.0,29.94,North,5,0.0,0.0,66,0.00,,,0.00,0.00,VWS V14.01,2013-03-24 01:00:00,
2013-03-23 21:05:00,46.5,35.4,29.94,North,5,0.0,0.0,65,0.00,,,0.00,0.00,VWS V14.01,2013-03-24 01:05:00,
2013-03-23 21:10:00,46.2,35.9,29.95,North,5,0.0,0.0,67,0.00,,,0.00,0.00,VWS V14.01,2013-03-24 01:10:00,
2013-03-23 21:15:00,45.9,35.6,29.95,North,5,0.0,0.0,67,0.00,,,0.00,0.00,VWS V14.01,2013-03-24 01:15:00,
2013-03-23 21:20:00,45.5,35.2,29.95,North,5,0.0,0.0,67,0.00,,,0.00,0.00,VWS V14.01,2013-03-24 01:20:00,
2013-03-23 21:25:00,45.1,35.5,29.95,North,5,0.0,0.0,69,0.00,,,0.00,0.00,VWS V14.01,2013-03-24 01:25:00,
2013-03-23 21:30:00,44.7,35.2,29.95,North,5,0.0,0.0,69,0.00,,,0.00,0.00,VWS V14.01,2013-03-24 01:30:00,
2013-03-23 21:35:00,44.5,35.7,29.95,North,5,0.0,0.0,71,0.00,,,0.00,0.00,VWS V14.01,2013-03-24 01:35:00,
2013-03-23 21:40:00,44.3,35.5,29.95,North,5,0.0,0.0,71,0.00,,,0.00,0.00,VWS V14.01,2013-03-24 01:40:00,
2013-03-23 21:45:00,44.1,35.7,29.95,North,5,0.0,0.0,72,0.00,,,0.00,0.00,VWS V14.01,2013-03-24 01:45:00,
2013-03-23 21:50:00,43.9,35.8,29.95,North,5,0.0,0.0,73,0.00,,,0.00,0.00,VWS V14.01,2013-03-24 01:50:00,
2013-03-23 21:55:00,43.8,35.7,29.95,North,5,0.0,0.0,73,0.00,,,0.00,0.00,VWS V14.01,2013-03-24 01:55:00,
2013-03-23 22:00:00,43.6,35.5,29.95,North,5,0.0,0.0,73,0.00,,,0.00,0.00,VWS V14.01,2013-03-24 02:00:00,
2013-03-23 22:05:00,43.5,35.8,29.96,North,5,0.0,0.0,74,0.00,,,0.00,0.00,VWS V14.01,2013-03-24 02:05:00,
2013-03-23 22:10:00,43.3,35.6,29.95,North,5,0.0,0.0,74,0.00,,,0.00,0.00,VWS V14.01,2013-03-24 02:10:00,
2013-03-23 22:15:00,43.3,35.6,29.95,North,5,0.0,0.0,74,0.00,,,0.00,0.00,VWS V14.01,2013-03-24 02:15:00,
2013-03-23 22:20:00,43.1,35.4,29.95,North,5,0.0,0.0,74,0.00,,,0.00,0.00,VWS V14.01,2013-03-24 02:20:00,
2013-03-23 22:25:00,42.9,35.2,29.95,North,5,0.0,0.0,74,0.00,,,0.00,0.00,VWS V14.01,2013-03-24 02:25:00,
2013-03-23 22:30:00,42.8,35.1,29.95,North,5,0.0,0.0,74,0.00,,,0.00,0.00,VWS V14.01,2013-03-24 02:30:00,
2013-03-23 22:35:00,42.6,35.2,29.95,North,5,0.0,0.0,75,0.00,,,0.00,0.00,VWS V14.01,2013-03-24 02:35:00,
2013-03-23 22:40:00,42.4,35.4,29.95,North,5,0.0,0.0,76,0.00,,,0.00,0.00,VWS V14.01,2013-03-24 02:40:00,
2013-03-23 22:45:00,42.3,35.6,29.94,North,5,0.0,0.0,77,0.00,,,0.00,0.00,VWS V14.01,2013-03-24 02:45:00,
2013-03-23 22:50:00,42.1,35.1,29.94,North,5,0.0,0.0,76,0.00,,,0.00,0.00,VWS V14.01,2013-03-24 02:50:00,
2013-03-23 22:55:00,42.0,35.0,29.94,North,5,0.0,0.0,76,0.00,,,0.00,0.00,VWS V14.01,2013-03-24 02:55:00,
2013-03-23 23:00:00,41.9,35.2,29.94,North,5,0.0,0.0,77,0.00,,,0.00,0.00,VWS V14.01,2013-03-24 03:00:00,
2013-03-23 23:05:00,41.8,35.1,29.93,North,5,0.0,0.0,77,0.00,,,0.00,0.00,VWS V14.01,2013-03-24 03:05:00,
2013-03-23 23:10:00,41.6,34.9,29.93,North,5,0.0,0.0,77,0.00,,,0.00,0.00,VWS V14.01,2013-03-24 03:10:00,
2013-03-23 23:15:00,41.6,35.3,29.93,North,5,0.0,0.0,78,0.00,,,0.00,0.00,VWS V14.01,2013-03-24 03:15:00,
2013-03-23 23:20:00,41.5,35.2,29.93,North,5,0.0,0.0,78,0.00,,,0.00,0.00,VWS V14.01,2013-03-24 03:20:00,
2013-03-23 23:25:00,41.3,35.0,29.92,North,5,0.0,0.0,78,0.00,,,0.00,0.00,VWS V14.01,2013-03-24 03:25:00,
2013-03-23 23:30:00,41.2,35.2,29.92,North,5,0.0,0.0,79,0.00,,,0.00,0.00,VWS V14.01,2013-03-24 03:30:00,
2013-03-23 23:35:00,41.1,35.1,29.91,North,5,0.0,0.0,79,0.00,,,0.00,0.00,VWS V14.01,2013-03-24 03:35:00,
2013-03-23 23:40:00,40.9,35.2,29.92,North,5,0.0,0.0,80,0.00,,,0.00,0.00,VWS V14.01,2013-03-24 03:40:00,
2013-03-23 23:45:00,40.8,35.1,29.91,North,5,0.0,0.0,80,0.00,,,0.00,0.00,VWS V14.01,2013-03-24 03:45:00,
2013-03-23 23:50:00,40.6,34.9,29.90,North,5,0.0,0.0,80,0.00,,,0.00,0.00,VWS V14.01,2013-03-24 03:50:00,
2013-03-23 23:55:00,40.5,35.1,29.90,North,5,0.0,0.0,81,0.00,,,0.00,0.00,VWS V14.01,2013-03-24 03:55:00,